Regional Weather Roundup
Issued by NWS

Home | Current Version | Previous Version | Text Only | Print | Product List | Glossary Off
Versions: 1 2 3 4 5 6 7 8 9 10 11 12 13 14 15 16 17 18 19 20 21 22 23 24 25 26 27 28 29 30 31 32 33 34 35 36 37 38 39 40 41 42 43 44 45 46 47 48 49 50

000
ASUS43 KLSX 280407
RWRMO

WEATHER SUMMARY FOR MISSOURI
NATIONAL WEATHER SERVICE SPRINGFIELD MO
1100 PM CDT MON APR 27 2015

NOTE: "FAIR" INDICATES FEW OR NO CLOUDS BELOW 12,000 FEET WITH NO
       SIGNIFICANT WEATHER AND/OR OBSTRUCTIONS TO VISIBILITY.
       CURRENT SKY AND/OR WEATHER CONDITIONS ARE NOT AVAILABLE FOR
       CHILLICOTHE AND FARMINGTON.

MOZ001>031-035>038-043-044-053-054-280500-
...NORTHERN AND WESTERN MISSOURI...

CITY           SKY/WX    TMP DP  RH WIND       PRES   REMARKS
KANSAS CTY INT PTCLDY    54  36  50 NE6       30.12R
KANSAS C DTWN  PTCLDY    56  35  45 NE5       30.11R
LEE`S SUMMIT   PTCLDY    54  36  50 N5        30.11R
ST JOSEPH      PTCLDY    49  39  68 N9        30.13R
CHILLICOTHE      N/A     49  40  71 N3        30.14R
KIRKSVILLE     CLEAR     52  37  56 N3        30.13R

$$
MOZ066>068-077>081-088>096-101>105-280500-
...SOUTHWEST MISSOURI...

CITY           SKY/WX    TMP DP  RH WIND       PRES   REMARKS
SPRINGFIELD    CLOUDY    54  36  50 NE7       30.04S
JOPLIN         CLOUDY    55  39  54 CALM      30.07R

$$
MOZ032>034-039>042-045>050-055>058-069>072-280500-
...CENTRAL MISSOURI...

CITY           SKY/WX    TMP DP  RH WIND       PRES   REMARKS
COLUMBIA       CLEAR     51  39  63 NE8       30.10R
JEFFERSON CITY CLEAR     57  36  45 NE8       30.09R
ROLLA          CLEAR     49  36  61 NE5       30.06S
SEDALIA        CLEAR     53  36  52 NE5       30.11R
WHITEMAN AFB   CLEAR     51  37  58 NE2       30.09R
WARRENSBURG    PTCLDY    54  36  50 NE3       30.10S
OSAGE BEACH    PTCLDY    52  36  54 NE3       30.08R

$$
MOZ051-052-059>065-280500-
...EAST CENTRAL MISSOURI...

CITY           SKY/WX    TMP DP  RH WIND       PRES   REMARKS
ST LOUIS INTL  PTCLDY    56  37  49 NE6       30.09S
SPIRIT OF STL  CLEAR     46  41  82 CALM      30.08S
ST CHARLES     CLEAR     50  38  63 NE3       30.09R

$$
MOZ072>076-082>087-097>100-106>115-280500-
...SOUTH CENTRAL AND SOUTHEAST MISSOURI...

CITY           SKY/WX    TMP DP  RH WIND       PRES   REMARKS
CAPE GIRARDEAU MOCLDY    55  42  61 NE12      30.05S
FARMINGTON     PTCLDY    50  37  62 E5        30.11R
POPLAR BLUFF   PTCLDY    55  41  59 N9        30.02F
WEST PLAINS    MOCLDY    52  34  50 NE7       30.04S

$$


USA.gov is the U.S. government's official web portal to all federal, state and local government web resources and services.